Content
SEND FEEDBACK

Daily
Averages
Monthly
Summary
France

PARIS, FRANCE


Home > Europe > France
Elevation: 315 feet     Latitude: 48 44N     Longitude: 002 24E

WEATHER
 
SELECT A DAY
Number of Records: 320,186;   Date Range: 7/1/96 - 9/15/14
 
SHARE

PRINT THIS DATA

[ ← Previous Day ]
WEATHER ALMANAC - MARCH 16, 2013
[ Next Day → ]
[ °C ]   °F
Weather ElementAverageHighLow
Temperature40.8 °F48.2 °F (4:30 pm)35.6 °F (3:30 am)
Dewpoint29.5 °F39.2 °F (9:00 pm)24.8 °F (12:00 pm)
Humidity64.8 %93 % (9:30 pm)40 % (1:00 pm)
Barometer29.70 in29.91 in (1:00 am)29.53 in (5:30 pm)
Wind Speed11.2 mph18.4 mph (8:30 pm)
Wind Gust23 mph (6:00 pm)
Weather ElementAverage
Visibility8.3 mi
Wind DirectionS (182.7 °)

Weather ElementTotal
Precipitation---
Heating Degree Days23.1 (Base 65)
Averaged from 51 records on March 16, 2013
WEATHER CONDITIONS BREAKOUT
WIND DIRECTION BREAKOUT
WEATHER BY HOUR - MARCH 16, 2013
[ °C ]   °F
Local TimeTemperatureDewpointHumidityBarometerVisibilityWind DirectionWind SpeedGust SpeedPrecipitationEventsConditions
12:30 AM37.4 °F26.6 °F65 %29.89 in6.2 miSSW (200°)9.2 mphScattered Clouds
1:00 AM37.0 °F27.0 °F57 %29.91 in19.0 miSouth (190°)9.2 mphScattered Clouds
1:00 AM37.4 °F26.6 °F65 %29.89 inSouth (190°)9.2 mphClear
1:30 AM37.4 °F28.4 °F70 %29.89 inSouth (190°)10.4 mphClear
2:00 AM37.4 °F28.4 °F70 %29.89 inSouth (190°)11.5 mphClear
2:30 AM37.4 °F28.4 °F70 %29.86 inSouth (190°)8.1 mphClear
3:00 AM37.4 °F28.4 °F70 %29.86 inSSW (200°)9.2 mphClear
3:30 AM35.6 °F26.6 °F70 %29.86 inSouth (190°)8.1 mphClear
4:00 AM35.6 °F28.4 °F75 %29.83 inSouth (180°)6.9 mphClear
4:30 AM35.6 °F28.4 °F75 %29.83 inSouth (180°)8.1 mphClear
5:00 AM35.6 °F28.4 °F75 %29.83 inSouth (180°)8.1 mphClear
5:30 AM35.6 °F28.4 °F75 %29.83 inSouth (180°)9.2 mphClear
6:00 AM35.6 °F26.6 °F70 %29.80 inSouth (180°)8.1 mphClear
6:30 AM35.6 °F26.6 °F70 %29.80 inSouth (170°)9.2 mphClear
7:00 AM36.0 °F26.0 °F57 %29.83 in16.0 miSouth (170°)10.4 mphMostly Cloudy
7:00 AM35.6 °F26.6 °F70 %29.80 inSouth (170°)10.4 mphClear
7:30 AM35.6 °F26.6 °F70 %29.80 inSouth (180°)10.4 mphClear
8:00 AM37.4 °F26.6 °F65 %29.80 inSouth (180°)11.5 mphClear
8:30 AM37.4 °F26.6 °F65 %29.77 inSouth (180°)10.4 mphClear
9:00 AM37.4 °F26.6 °F65 %29.77 inSouth (180°)11.5 mphClear
9:30 AM37.4 °F26.6 °F65 %29.77 inSouth (180°)12.7 mphClear
10:00 AM39.2 °F26.6 °F61 %29.74 inSouth (180°)13.8 mphClear
10:30 AM39.2 °F26.6 °F61 %29.74 inSouth (180°)11.5 mphClear
11:00 AM39.2 °F26.6 °F61 %29.71 inSouth (180°)12.7 mphClear
11:30 AM41.0 °F26.6 °F57 %29.71 inSouth (180°)12.7 mphClear
12:00 PM41.0 °F24.8 °F53 %29.71 inSouth (170°)12.7 mphClear
12:30 PM41.0 °F24.8 °F53 %29.68 inSouth (170°)10.4 mphClear
1:00 PM43.0 °F27.0 °F40 %29.69 in16.0 miSouth (170°)12.7 mphOvercast
1:00 PM42.8 °F26.6 °F53 %29.65 inSouth (170°)12.7 mphClear
1:30 PM44.6 °F24.8 °F46 %29.65 inSouth (170°)11.5 mphClear
2:00 PM44.6 °F24.8 °F46 %29.62 inSouth (170°)12.7 mphClear
2:30 PM46.4 °F24.8 °F43 %29.62 inSSE (160°)12.7 mphClear
3:00 PM46.4 °F26.6 °F46 %29.59 inSSE (160°)12.7 mphClear
3:30 PM46.4 °F24.8 °F43 %29.59 inSSE (160°)16.1 mphClear
4:00 PM46.4 °F26.6 °F46 %29.59 inSSE (160°)16.1 mphClear
4:30 PM48.2 °F28.4 °F46 %29.56 inSSE (160°)13.8 mphClear
5:00 PM48.2 °F28.4 °F46 %29.56 inSouth (170°)11.5 mphClear
5:30 PM48.2 °F28.4 °F46 %29.53 inSouth (170°)12.7 mphClear
6:00 PM48.2 °F28.4 °F46 %29.56 in6.2 miSSW (200°)10.4 mph23.0 mphMostly Cloudy
6:30 PM46.4 °F33.8 °F62 %29.56 in6.2 miWSW (240°)11.5 mphRainLight Rain
7:00 PM45.0 °F37.0 °F66 %29.58 in12.0 miSSW (200°)10.4 mphRainLight Rain
7:00 PM44.6 °F37.4 °F76 %29.56 in6.2 miSSW (200°)10.4 mphRainLight Rain
7:30 PM44.6 °F37.4 °F76 %29.56 in6.2 miSouth (190°)10.4 mphRainLight Rain
8:00 PM44.6 °F37.4 °F76 %29.56 in6.2 miSouth (190°)11.5 mphRainLight Rain
8:30 PM42.8 °F37.4 °F81 %29.56 in6.2 miSSW (200°)18.4 mphRainLight Rain
9:00 PM42.8 °F39.2 °F87 %29.56 in5.0 miSouth (190°)12.7 mphRainRain
9:30 PM41.0 °F39.2 °F93 %29.56 in5.0 miSSW (200°)13.8 mphRainLight Rain
10:00 PM41.0 °F39.2 °F93 %29.53 in6.2 miSouth (190°)10.4 mphMostly Cloudy
10:30 PM41.0 °F39.2 °F93 %29.53 in6.2 miSSW (200°)9.2 mphMostly Cloudy
11:00 PM42.8 °F39.2 °F87 %29.53 in6.2 miSSW (200°)10.4 mphMostly Cloudy
11:30 PM42.8 °F39.2 °F87 %29.53 in6.2 miSouth (190°)10.4 mphMostly Cloudy
Hourly data recorded from LFPO, located miles away from Paris, France







STORIES FROM OUR PARTNERS